FW4822 Weather Reports


time (UTC)temp
C
wind
direction
speed
KPH
gust
KPH
rain 1hr
cm
rain 24hr
cm
rain mn
cm
humidity
%
barometer
mb
20260904144609 22 307 0.0 8.0 0.00 0.00 0.00 79 1012.9
20260904141551 21 309 1.6 8.0 0.00 0.00 0.00 83 1013.4
20260904140048 21 360 4.8 11.3 0.00 0.00 0.00 83 1013.5
20260904134546 20 46 0.0 9.7 0.00 0.00 0.00 86 1013.4
20260904131547 20 304 0.0 8.0 0.00 0.03 0.00 89 1013.0
20260904130044 20 301 0.0 3.2 0.00 0.03 0.00 91 1013.1
20260904124542 19 302 0.0 1.6 0.00 0.03 0.00 91 1013.2
20260904121533 19 302 0.0 3.2 0.00 0.03 0.00 91 1013.2
20260904120031 19 302 0.0 1.6 0.00 0.03 0.00 93 1013.2
20260904114529 18 302 0.0 4.8 0.00 0.03 0.00 94 1013.3
20260904111537 18 300 1.6 8.0 0.00 0.03 0.00 94 1012.9
20260904110039 18 288 1.6 6.4 0.00 0.03 0.00 94 1013.1
20260904104540 18 290 1.6 6.4 0.00 0.03 0.00 94 1012.9
20260904101536 18 271 0.0 1.6 0.00 0.03 0.00 94 1012.8
20260904100037 18 271 0.0 3.2 0.00 0.03 0.00 93 1012.7
20260904094534 18 271 0.0 3.2 0.00 0.03 0.00 93 1012.7
20260904091546 18 288 0.0 6.4 0.00 0.10 0.00 93 1012.8
20260904090029 18 318 0.0 6.4 0.00 0.10 0.00 93 1012.8
20260904084526 18 311 0.0 8.0 0.00 0.10 0.00 93 1012.5
20260904081527 18 18 3.2 8.0 0.00 0.13 0.00 94 1012.2
20260904080027 18 32 1.6 9.7 0.00 0.13 0.00 95 1012.2
20260904074547 18 325 0.0 3.2 0.00 0.13 0.00 95 1012.2
20260904071523 18 269 0.0 6.4 0.00 0.23 0.00 94 1012.1
20260904070022 18 322 0.0 4.8 0.00 0.23 0.00 94 1012.1
20260904064520 18 322 0.0 4.8 0.00 0.23 0.00 94 1011.9
20260904061518 19 323 0.0 1.6 0.00 0.25 0.23 93 1011.6
20260904060018 19 323 0.0 3.2 0.00 0.25 0.23 93 1011.8
20260904054521 19 284 0.0 4.8 0.00 0.25 0.23 93 1011.9
20260904051512 19 280 0.0 3.2 0.00 0.36 0.23 93 1012.1
20260904050012 20 277 0.0 4.8 0.00 0.36 0.23 93 1012.0
20260904044514 20 277 0.0 3.2 0.00 0.36 0.23 93 1012.1
20260904041523 20 277 0.0 3.2 0.00 1.19 0.23 92 1012.0
20260904040016 20 277 0.0 3.2 0.00 1.19 0.23 92 1012.0
20260904034515 20 284 0.0 4.8 0.00 1.19 0.23 91 1012.4
20260904031510 21 282 1.6 11.3 0.00 1.19 0.23 90 1012.2
20260904030010 21 323 0.0 6.4 0.00 1.19 0.23 91 1012.2
20260904024510 21 285 0.0 12.9 0.00 1.19 0.23 88 1012.2
20260904021529 22 263 0.0 8.0 0.00 1.83 0.23 86 1012.3
20260904020011 22 283 1.6 9.7 0.00 1.83 0.23 85 1012.3
20260904014511 23 270 0.0 9.7 0.00 1.83 0.23 87 1012.6
20260904011512 23 286 0.0 4.8 0.00 1.91 0.23 86 1012.8
20260904010018 23 276 0.0 6.4 0.00 1.91 0.23 87 1012.6
20260904004511 23 273 0.0 3.2 0.00 1.91 0.23 86 1012.6
20260904001507 23 275 0.0 6.4 0.00 1.91 0.23 84 1012.6
20260904000006 24 286 0.0 6.4 0.00 1.91 0.23 84 1012.4
20260903234510 24 296 0.0 3.2 0.00 1.91 0.23 82 1012.2
20260903231502 24 306 0.0 4.8 0.00 1.91 0.23 81 1012.5
20260903230007 25 323 0.0 4.8 0.00 1.91 0.23 81 1012.4
20260903224504 25 291 0.0 4.8 0.00 1.91 0.23 80 1012.5
20260903221507 26 261 0.0 8.0 0.00 1.91 0.23 77 1011.9
20260903220005 26 271 0.0 4.8 0.00 1.91 0.23 75 1011.4
20260903214503 27 287 0.0 4.8 0.00 1.91 0.23 72 1011.4
20260903211506 28 293 1.6 8.0 0.00 1.91 0.23 69 1011.6
20260903210005 29 234 1.6 4.8 0.00 1.91 0.23 69 1011.4
20260903204503 28 274 1.6 8.0 0.00 1.91 0.23 69 1011.4
20260903201556 27 286 4.8 14.5 0.00 1.91 0.23 68 1011.8
20260903200054 28 232 3.2 11.3 0.00 1.91 0.23 69 1012.1
20260903194553 28 281 1.6 9.7 0.00 1.91 0.23 69 1012.1
20260903191547 29 235 0.0 11.3 0.00 1.93 0.23 66 1012.4
20260903190046 29 304 1.6 8.0 0.00 1.93 0.23 65 1012.5
20260903184543 29 171 1.6 9.7 0.00 1.93 0.23 65 1012.6
20260903181539 28 260 0.0 8.0 0.00 1.93 0.23 67 1012.9
20260903180054 28 238 3.2 8.0 0.00 1.93 0.23 68 1013.2
20260903174534 28 282 1.6 9.7 0.00 1.93 0.23 70 1013.2
20260903171528 27 188 1.6 9.7 0.00 1.93 0.23 71 1013.4
20260903170025 27 270 0.0 8.0 0.00 1.93 0.23 74 1013.5
20260903164523 26 178 1.6 8.0 0.00 1.93 0.23 73 1013.5
20260903161520 25 262 4.8 16.1 0.00 1.93 0.23 77 1014.3
20260903160016 24 293 4.8 12.9 0.00 1.93 0.23 79 1014.1
20260903154514 23 297 1.6 8.0 0.00 1.93 0.23 81 1014.4
20260903151506 22 281 0.0 9.7 0.00 1.93 0.23 88 1014.6
20260903150000 22 236 0.0 8.0 0.00 1.93 0.23 92 1014.8